User: anonymous   Login
Location: Milton Keynes
(52.0316°N, 0.7531°W)
Time: 07:03:03
(UTC+00:00)
Language:

ISS - Orbit

View from above orbital plane
View from above orbital plane
View from above satellite
View from above satellite

Ground track
Ground track

The orbit data is extracted from the following two-line orbital elements,

1 25544U 98067A   19049.52646023  .00016717  00000-0  10270-3 0  9031
2 25544  51.6348 231.2749 0005701  39.2063 320.9501 15.53287629 36819
Epoch (UTC): 18 February 2019 12:38:06
Eccentricity: 0.0005701
inclination: 51.6348°
perigee height: 403 km
apogee height: 411 km
right ascension of ascending node: 231.2749°
argument of perigee: 39.2063°
revolutions per day: 15.53287629
mean anomaly at epoch: 320.9501°
orbit number at epoch: 3681

The dashed part of the orbit path shows where the satellite is in the earth's shadow,  

DLR